Flag for Switzerland Weather past 2 weeks in Kriens, Lucerne, Switzerland

Now
85 °F

Warm.


Feels Like: 85 °F
Forecast: 62 / 94 °F
Wind: 2 mph from Northeast

Location: Giswil

Current Time: Jul 1, 2015 at 3:24:05 PM

Latest Report: Jul 1, 2015 at 2:00 PM


Visibility: N/A

Pressure: 30.01 "Hg

Humidity: 44%

Dew point: 61 °F

Location of KriensLocation

Historic Weather in Kriens — Graph

°F

Kriens temperature yesterday

Maximum temperature yesterday: 86 °F (at 6:00 PM)
Minimum temperature yesterday: 54 °F (at 6:00 AM)
Average temperature yesterday: 69 °F

Past Weeks' High & Low Weather Summary

 TemperatureHumidityPressure
High86 °F (Jun 30, 6:00 PM)99% (Jun 19, 12:00 AM)30.25 "Hg (Jun 19, 12:00 AM)
Low47 °F (Jun 25, 6:00 AM)38% (Jun 30, 3:00 PM)29.71 "Hg (Jun 22, 11:00 PM)
Average63 °F75%30.09 "Hg
* Reported Jun 16 2:00 PM — Jul 1 2:00 PM, Kriens, Weather by CustomWeather, © 2015

Note: Actual official high and low records may vary slightly from our data, if they occured in-between our weather recording intervals... More about our weather records

Advertising

Kriens weather history for previous 24 hours

 ConditionsComfort  
Time TempWeatherWind HumidityBarometerVisibility
2:00 PM
Wed, Jul 1
85 °FWarm.2 mph44%30.01 "HgN/A
1:00 PM83 °FWarm.2 mph45%30.03 "HgN/A
12:00 PM81 °FWarm.2 mph45%30.04 "HgN/A
11:00 AM77 °FWarm.2 mph55%30.06 "HgN/A
10:00 AM74 °FMild.2 mph60%30.08 "HgN/A
9:00 AM72 °FMild.1 mph67%30.09 "HgN/A
8:00 AM68 °FMild.No wind80%30.10 "HgN/A
7:00 AM62 °FCool.1 mph91%30.11 "HgN/A
6:00 AM58 °FCool.1 mph96%30.12 "HgN/A
5:00 AM58 °FCool.2 mph95%30.11 "HgN/A
4:00 AM59 °FCool.1 mph94%30.10 "HgN/A
3:00 AM59 °FCool.2 mph94%30.10 "HgN/A
2:00 AM61 °FCool.No wind89%30.09 "HgN/A
1:00 AM62 °FCool.1 mph86%30.09 "HgN/A
12:00 AM63 °FMild.1 mph85%30.09 "HgN/A
10:00 PM
Tue, Jun 30
68 °FMild.3 mph73%30.07 "HgN/A
9:00 PM71 °FMild.3 mph70%30.04 "HgN/A
8:00 PM79 °FWarm.3 mph56%30.01 "HgN/A
6:00 PM86 °FWarm.3 mph40%29.98 "HgN/A
4:00 PM85 °FPleasantly warm.3 mph38%30.01 "HgN/A
3:00 PM84 °FPleasantly warm.2 mph38%30.02 "HgN/A
Weather by CustomWeather, © 2015

See weather overviewHow to use our weather pages